Overview Statistics Trail Chart Weather Telemetry Raw packets
 

This is the latest recevied weather packets stored in our database for station/object VE8SKI. If no packets are shown the sender has not sent any weather packets the latest 10 day(s).

<< 21 22 23 24 25 26 27 >>
Time Temp. Humidity Pressure Rain* Wind** Luminosity Snow
1777956191 -1.11° C 87% 1026.7 hPa 0 mm 1.34 m/s, 315° - -
1777955891 -1.11° C 86% 1026.6 hPa 0 mm 1.34 m/s, 245° - -
1777955592 -1.11° C 86% 1026.4 hPa 0 mm 1.79 m/s, 0° - -
1777955292 -0.56° C 85% 1026.4 hPa 0 mm 1.34 m/s, 316° - -
1777954990 -0.56° C 85% 1026.2 hPa 0 mm 0 m/s - -
1777954690 -0.56° C 85% 1026 hPa 0 mm 0 m/s - -
1777954390 -0.56° C 84% 1025.8 hPa 0 mm 0.89 m/s, 309° - -
1777954091 0° C 84% 1025.6 hPa 0 mm 0.89 m/s, 277° - -
1777953791 0° C 83% 1025.5 hPa 0 mm 0.89 m/s, 359° - -
1777953492 0.56° C 83% 1025.4 hPa 0 mm 1.34 m/s, 271° - -
1777953189 0.56° C 83% 1025.3 hPa 0 mm 0 m/s - -
1777952890 0.56° C 82% 1025 hPa 0 mm 0 m/s - -
1777952590 1.11° C 81% 1024.9 hPa 0 mm 0 m/s - -
1777952291 1.11° C 81% 1024.8 hPa 0 mm 0 m/s - -
1777951991 1.11° C 80% 1024.7 hPa 0 mm 0 m/s - -
1777951692 1.67° C 80% 1024.6 hPa 0 mm 0 m/s - -
1777951389 1.67° C 80% 1024.5 hPa 0 mm 0 m/s - -
1777951090 1.67° C 80% 1024.4 hPa 0 mm 0 m/s - -
1777950790 2.22° C 80% 1024.4 hPa 0 mm 0 m/s - -
1777950491 2.22° C 79% 1024.3 hPa 0 mm 0 m/s - -
1777950191 2.78° C 78% 1024.2 hPa 0 mm 0 m/s - -
1777949892 2.78° C 78% 1024.2 hPa 0 mm 0.45 m/s, 302° - -
1777949589 2.78° C 78% 1024.2 hPa 0 mm 0.45 m/s, 311° - -
1777949290 3.33° C 76% 1024.2 hPa 0 mm 1.34 m/s, 270° - -
1777948990 3.33° C 75% 1024.2 hPa 0 mm 0 m/s - -

* Rain latest hour (hover to see other rain measurements)
** Current wind speed in m/s (hover to see current wind gust speed)